Yoho Park, British Columbia

3:43 PM MST on February 07, 2016 (GMT -0700)
Yoho Park

Weather History for 71786 - January, 2013

Change the Weather History Date:

Thursday, January 24, 2013

  Actual Average Record
Temperature  
Mean Temperature 22 °F -  
Max Temperature 24 °F - - ()
Min Temperature 21 °F - - ()
Degree Days  
Heating Degree Days 42    
Moisture  
Dew Point 22 °F    
Average Humidity 95    
Maximum Humidity 96    
Minimum Humidity 91    
Precipitation  
Precipitation 0.00 in - - ()
Sea Level Pressure  
Sea Level Pressure 30.05 in    
Wind  
Wind Speed 13 mph ()    
Max Wind Speed 18 mph    
Max Gust Speed -    
T = Trace of Precipitation, MM = Missing Value Source: Averaged Metar Reports

Daily Weather History Graph

Daily Weather History Graph

Search for Another Location

Airport or City:

Trip Planner

Search our weather history database for the weather conditions in past years. The results will help you decide how hot, cold, wet, or windy it might be!

Date:

Astronomy

Jan. 24, 2013 Rise Set
Actual Time 8:34 AM MST 5:21 PM MST
Civil Twilight 7:56 AM MST 5:58 PM MST
Nautical Twilight 7:16 AM MST 6:39 PM MST
Astronomical Twilight 6:36 AM MST 7:19 PM MST
Moon 3:23 PM MST (1/24) 6:39 AM MST (1/24)
Length of Visible Light 10h 01m
Length of Day
8h 47m
Waxing Gibbous, 95% of the Moon is Illuminated
Jan 24
Waxing Gibbous
Jan 26
Full
Feb 3
Last Quarter
Feb 10
New
Feb 17
First Quarter

Hourly Weather History & Observations

Time (MST) Temp. Windchill Dew Point Humidity Pressure Visibility Wind Dir Wind Speed Gust Speed Precip Events Conditions
12:00 AM 21.6 °F 7.8 °F 20.1 °F 94% 29.86 in - West 16.1 mph - N/A   Unknown
1:00 AM 21.7 °F 7.1 °F 20.5 °F 95% 29.86 in - West 18.4 mph - N/A   Unknown
2:00 AM 21.9 °F 8.2 °F 20.7 °F 95% 29.88 in - West 16.1 mph - N/A   Unknown
3:00 AM 22.1 °F 8.9 °F 20.8 °F 95% 29.90 in - West 15.0 mph - N/A   Unknown
4:00 AM 22.3 °F 9.7 °F 21.0 °F 95% 29.92 in - West 13.8 mph - N/A   Unknown
5:00 AM 22 °F - 21 °F 94% 29.95 in - West 12.7 mph - -  
5:00 AM 22.3 °F 10.2 °F 21.0 °F 95% 29.95 in - West 12.7 mph - N/A   Unknown
6:00 AM 22.5 °F 9.4 °F 21.0 °F 94% 29.98 in - West 15.0 mph - N/A   Unknown
7:00 AM 22.8 °F 9.4 °F 21.6 °F 95% 30.00 in - West 16.1 mph - N/A   Unknown
8:00 AM 22.6 °F 10.1 °F 21.4 °F 95% 30.04 in - WSW 13.8 mph - N/A   Unknown
9:00 AM 22.6 °F 10.7 °F 21.4 °F 95% 30.07 in - WSW 12.7 mph - N/A   Unknown
10:00 AM 22.6 °F 11.3 °F 21.4 °F 95% 30.10 in - SW 11.5 mph - N/A   Unknown
11:00 AM 22 °F - 21 °F 94% 30.12 in - WSW 11.5 mph - -  
11:00 AM 22.5 °F 11.1 °F 21.0 °F 94% 30.12 in - WSW 11.5 mph - N/A   Unknown
12:00 PM 23.0 °F 11.1 °F 21.6 °F 94% 30.13 in - WSW 12.7 mph - N/A   Unknown
1:00 PM 23.4 °F 11.1 °F 21.9 °F 94% 30.13 in - WSW 13.8 mph - N/A   Unknown
2:00 PM 24.1 °F 12.0 °F 22.6 °F 94% 30.13 in - WSW 13.8 mph - N/A   Unknown
3:00 PM 24.1 °F 11.0 °F 22.6 °F 94% 30.13 in - WSW 16.1 mph - N/A   Unknown
4:00 PM 23.9 °F 11.2 °F 22.5 °F 94% 30.13 in - WSW 15.0 mph - N/A   Unknown
5:00 PM 24 °F - 22 °F 91% 30.14 in - WSW 11.5 mph - -  
5:00 PM 23.7 °F 12.6 °F 22.5 °F 95% 30.14 in - WSW 11.5 mph - N/A   Unknown
6:00 PM 23.2 °F 12.6 °F 21.9 °F 95% 30.14 in - WSW 10.4 mph - N/A   Unknown
7:00 PM 22.8 °F 11.5 °F 21.7 °F 96% 30.13 in - West 11.5 mph - N/A   Unknown
8:00 PM 23.0 °F 11.7 °F 21.9 °F 96% 30.12 in - West 11.5 mph - N/A   Unknown
9:00 PM 23.0 °F 12.4 °F 21.9 °F 96% 30.10 in - West 10.4 mph - N/A   Unknown
10:00 PM 23.2 °F 11.4 °F 22.1 °F 96% 30.09 in - West 12.7 mph - N/A   Unknown
11:00 PM 23 °F - 22 °F 96% 30.07 in - West 16.1 mph - -  
11:00 PM 23.4 °F 10.1 °F 22.3 °F 96% 30.07 in - West 16.1 mph - N/A   Unknown